Find Starlink 32774

NORAD ID: 62737 Int'l Des: 2025-014 Owner: SPXS Country: US Constellation: starlink operational
LEOCIRCULAR

現在のビュー

3D地球を読み込み中...

About Starlink 32774

Starlink 32774 (NORAD 62737) is a starlink constellation satellite (v2 mini) launched Jan 21, 2025 by SPXS of US. It operates in LEO, CIRCULAR orbit with a mass of 730.00 kg.

次回通過

Passes for default location (London). Set your location on the main map for personalized predictions.

高度履歴

Loading altitude history...

軌道要素

1 62737U 25014C 26263.04142167 .00011391 00000-0 42264-3 0 9997
2 62737 43.0004 140.0251 0000676 254.3116 105.7662 15.27595540 92946
Epoch: Sep 20, 2026 • Age: 34 hours

現在のステータス

高度 487.8 km
遠地点 / 近地点 N/A
速度 7.62 km/s
衛星直下点 -22.00°S, 64.53°W
打ち上げ日 Jan 21, 2025
運用期間 1.6 years
タイプ internet

技術仕様

分類 Payload
質量 730.00 kg
乾燥質量 700.00 kg
長さ 0.30 m
スパン 29.00 m
形状 ? Box + pan
製造者 SPXS
バスタイプ Starlink V2M
フェーズステータス In Orbit
所有者/国 SPXS/US

Most Searched